[[{"header":{"parameterUnit":"m.s-1","parameterCategory":2,"la1":30.2991,"la2":30.254,"lo1":-89.0895,"lo2":-89.0444,"dy":0.0017,"dx":0.0017,"nx":28,"ny":28,"refTime":"2025-06-01T03:00:00:Z","depth":"0","parameterNumber":2,"parameterNumberName":"U-component_of_CURRENTS"},"data":[0,0,0,0,0,0,0,0,0,0,0,0,0,0,0,0,0,0,0,0,0,0,0,0,0,0,0,0,0,0,0,0,0,0,0,0,0,0,0,0,0,0,0,0,0,0,0,0,0,0,0,0,0,0,0,0,0,0,-0.2993,-0.2993,0,-0.2984,-0.2984,-0.2983,-0.297,-0.297,-0.297,-0.2971,-0.2855,-0.2851,-0.2848,0,0,0,0,0,0,0,0,0,0,0,0,0,-0.2957,-0.2958,-0.2993,-0.2993,-0.2994,-0.2984,-0.2984,-0.2983,-0.297,-0.297,-0.297,-0.2971,-0.2856,-0.2852,-0.2848,0,0,0,0,0,0,0,0,0,0,0,0,0,-0.2959,-0.2958,-0.2993,-0.2989,-0.2989,-0.2984,-0.2984,-0.2983,-0.297,-0.297,-0.2971,-0.2971,-0.2857,-0.2852,-0.2847,-0.2812,0,0,-0.2832,-0.283,0,0,0,0,0,0,0,0,-0.2959,-0.2959,-0.299,-0.299,-0.299,-0.2983,-0.2929,-0.2922,-0.297,-0.2972,-0.2971,-0.2971,-0.289,-0.2883,-0.2875,-0.2806,-0.2801,-0.2832,-0.2829,-0.2827,-0.2826,0,0,0,0,0,0,0,-0.2958,-0.2959,-0.2985,-0.299,-0.299,-0.2974,-0.2975,-0.2927,-0.2924,-0.2972,-0.2972,-0.2979,-0.2889,-0.288,-0.2872,-0.28,-0.2832,-0.2828,-0.2825,-0.2823,-0.2811,-0.2814,0,0,0,0,0,0,-0.2971,-0.296,-0.2985,-0.2985,-0.298,-0.2975,-0.2975,-0.2981,-0.2927,-0.2922,-0.2978,-0.2978,-0.2888,-0.2878,-0.2868,-0.2909,-0.2827,-0.2822,-0.282,-0.2809,-0.2812,-0.2815,0,0,0,0,0,0,-0.297,-0.2973,-0.2986,-0.2976,-0.2977,-0.2976,-0.2982,-0.2981,-0.2977,-0.2934,-0.2925,-0.2978,-0.2888,-0.2875,-0.2865,-0.2901,-0.282,-0.2816,-0.2805,-0.281,-0.2813,-0.2935,0,0,0,0,0,0,-0.2969,-0.2973,-0.2972,-0.2977,-0.2978,-0.301,-0.2982,-0.298,-0.2983,-0.2982,-0.293,-0.292,-0.2887,-0.2873,-0.2861,-0.2893,-0.2812,-0.2802,-0.2807,-0.2812,-0.2928,-0.2943,-0.2956,0,0,0,0,0,-0.2968,-0.2978,-0.2972,-0.2975,-0.298,-0.3012,-0.3012,-0.3008,-0.2983,-0.3,-0.2974,-0.2922,-0.2896,-0.2871,-0.2856,-0.2887,-0.28,-0.2806,-0.2812,-0.2922,-0.294,-0.2955,0,0,0,0,0,0,-0.2955,-0.2978,-0.2972,-0.2985,-0.3008,-0.3013,-0.3017,-0.301,-0.3,-0.299,-0.294,-0.2929,-0.2939,-0.2898,-0.2872,-0.2904,-0.2844,-0.2847,-0.2934,-0.295,-0.2964,-0.2999,-0.2808,0,0,0,0,0,-0.2953,-0.2971,-0.2992,-0.3003,-0.3012,-0.301,-0.3015,-0.3021,-0.3017,-0.3012,-0.2979,-0.2953,-0.295,-0.2938,-0.292,-0.2919,-0.2906,-0.2937,-0.2951,-0.2963,-0.2986,-0.3006,-0.3023,-0.2834,-0.2834,-0.2834,0,0,-0.2949,-0.2965,-0.2972,-0.3002,-0.3006,-0.3051,-0.3013,-0.3036,-0.3077,-0.2997,-0.3021,-0.299,-0.2962,-0.2984,-0.2984,-0.2952,-0.3014,-0.297,-0.2981,-0.2997,-0.3014,-0.3032,-0.3048,-0.2838,-0.2837,-0.2837,0,0,-0.2971,-0.2965,-0.2996,-0.3027,-0.3058,-0.307,-0.3082,-0.3095,-0.3103,-0.3123,-0.3093,-0.3097,-0.3061,-0.3074,-0.307,-0.3145,-0.3087,-0.313,-0.3222,-0.3242,-0.3257,-0.3271,-0.329,-0.3304,-0.3136,-0.3137,-0.3137,0,-0.2962,-0.301,-0.301,-0.3061,-0.3097,-0.3087,-0.3146,-0.316,-0.3171,-0.3192,-0.3151,-0.3156,-0.3117,-0.3177,-0.3212,-0.3177,-0.3174,-0.3157,-0.326,-0.3273,-0.3284,-0.3301,-0.3315,-0.3143,-0.3142,-0.3142,-0.3141,0,-0.302,-0.3065,-0.3087,-0.3154,-0.3193,-0.3239,-0.3276,-0.3304,-0.3297,-0.3312,-0.3352,-0.3313,-0.332,-0.3314,-0.328,-0.3356,-0.3323,-0.3274,-0.3215,-0.3311,-0.3322,-0.3334,-0.3153,-0.315,-0.3148,-0.3147,0,0,-0.2977,-0.3106,-0.3109,-0.3178,-0.325,-0.3295,-0.3368,-0.3442,-0.3498,-0.3491,-0.3559,-0.3553,-0.3517,-0.3513,-0.3471,-0.349,-0.3563,-0.3423,-0.3421,-0.344,-0.3612,-0.3404,-0.3396,-0.3524,-0.3527,-0.3529,-0.3589,0,-0.302,-0.3144,-0.3196,-0.3322,-0.3392,-0.3438,-0.3519,-0.3583,-0.3608,-0.3667,-0.3648,-0.3674,-0.3598,-0.3593,-0.361,-0.3564,-0.36,-0.3552,-0.3519,-0.3518,-0.3319,-0.3405,-0.3078,-0.3087,-0.3601,-0.3603,-0.3605,0,-0.3048,-0.3141,-0.3263,-0.3439,-0.3471,-0.3539,-0.3667,-0.3742,-0.3823,-0.3839,-0.3864,-0.3834,-0.386,-0.3771,-0.3773,-0.374,-0.3703,-0.3669,-0.367,-0.3442,-0.3332,-0.3073,-0.3089,-0.3068,-0.3623,-0.3621,-0.362,0,-0.3017,-0.3188,-0.3291,-0.3345,-0.3522,-0.3586,-0.3675,-0.3778,-0.3845,-0.3932,-0.3952,-0.399,-0.3958,-0.3951,-0.3842,-0.3821,-0.3833,-0.3788,-0.3589,-0.3574,-0.3271,-0.3223,-0.3253,-0.3831,-0.3831,-0.3831,-0.3831,0,-0.3043,-0.3125,-0.3284,-0.3343,-0.3475,-0.3596,-0.3724,-0.3809,-0.3924,-0.3963,-0.4014,-0.3983,-0.3994,-0.3968,-0.3915,-0.3764,-0.3884,-0.3628,-0.3579,-0.3303,-0.3259,-0.3202,-0.3246,-0.3833,-0.3833,-0.3832,-0.3832,0,-0.2978,-0.3085,-0.321,-0.3398,-0.3457,-0.3538,-0.3731,-0.3806,-0.3921,-0.3964,-0.3978,-0.3994,-0.3891,-0.3904,-0.3864,-0.3791,-0.3616,-0.3649,-0.3321,-0.3229,-0.2971,-0.3031,-0.3019,-0.2955,-0.3447,-0.3442,-0.3438,0,-0.2958,-0.3007,-0.32,-0.3245,-0.3319,-0.3467,-0.355,-0.3755,-0.3819,-0.3889,-0.3873,-0.3827,-0.3661,-0.3569,-0.3425,-0.3335,-0.3398,-0.3078,-0.2969,-0.2931,-0.2966,-0.3028,-0.2983,-0.2641,-0.2631,-0.2623,-0.2616,0,-0.289,-0.2934,-0.3032,-0.312,-0.3207,-0.3325,-0.3458,-0.3518,-0.3683,-0.3675,-0.3557,-0.343,-0.3265,-0.2939,-0.2875,-0.2792,-0.2933,-0.2898,-0.2944,-0.2413,-0.24,-0.2318,-0.2665,-0.2542,-0.2549,-0.2554,-0.2558,-0.2561,-0.2789,-0.2815,-0.2894,-0.2954,-0.3043,-0.307,-0.3068,-0.3171,-0.3169,-0.306,-0.3129,-0.2813,-0.2628,-0.2362,-0.2318,-0.2115,-0.2323,-0.2054,-0.216,-0.2254,-0.2091,-0.2273,-0.2029,-0.2033,-0.2037,-0.204,-0.2043,0,-0.2616,-0.2648,-0.2709,-0.2733,-0.2688,-0.2826,-0.2898,-0.2814,-0.2648,-0.2571,-0.2396,-0.2049,-0.175,-0.1683,-0.1477,-0.1424,-0.1447,-0.1478,-0.1513,-0.1527,-0.1718,-0.1573,-0.1111,-0.1111,-0.1111,-0.1111,-0.1111,-0.1111,-0.2521,-0.2479,-0.2501,-0.2334,-0.2334,-0.2193,-0.2163,-0.2073,-0.1981,-0.1625,-0.1383,-0.1284,-0.1296,-0.1293,-0.1163,-0.1113,-0.1214,-0.1098,-0.1356,-0.1488,-0.1552,-0.1613,-0.1488,-0.1015,-0.1015,-0.0988,-0.0988,-0.0989]},{"header":{"parameterUnit":"m.s-1","parameterCategory":2,"la1":30.2991,"la2":30.254,"lo1":-89.0895,"lo2":-89.0444,"dy":0.0017,"dx":0.0017,"nx":28,"ny":28,"refTime":"2025-06-01T03:00:00:Z","depth":"0","parameterNumber":3,"parameterNumberName":"V-component_of_CURRENTS"},"data":[0,0,0,0,0,0,0,0,0,0,0,0,0,0,0,0,0,0,0,0,0,0,0,0,0,0,0,0,0,0,0,0,0,0,0,0,0,0,0,0,0,0,0,0,0,0,0,0,0,0,0,0,0,0,0,0,0,0,0.0133,0.0134,0,0.0279,0.0281,0.0282,0.0329,0.0328,0.0327,0.0327,0.0448,0.0452,0.0456,0,0,0,0,0,0,0,0,0,0,0,0,0,-0.0047,-0.0044,0.0132,0.0134,0.0136,0.0279,0.0281,0.0283,0.0329,0.0328,0.0327,0.0326,0.0447,0.0451,0.0456,0,0,0,0,0,0,0,0,0,0,0,0,0,0.0059,-0.0043,0.0132,0.0176,0.0181,0.0278,0.0281,0.0283,0.0329,0.0328,0.0327,0.0326,0.0445,0.0451,0.0457,0.0514,0,0,0.0475,0.0477,0,0,0,0,0,0,0,0,0.0052,0.0065,0.0168,0.0173,0.0179,0.0284,0.0262,0.0359,0.0329,0.0273,0.0327,0.0325,0.0392,0.0402,0.0433,0.052,0.0525,0.0475,0.0479,0.0481,0.0483,0,0,0,0,0,0,0,0.0045,0.0059,0.0191,0.017,0.0177,0.0209,0.0222,0.0281,0.0336,0.0278,0.0282,0.0298,0.0394,0.0427,0.0436,0.0527,0.0475,0.048,0.0484,0.0486,0.0665,0.0666,0,0,0,0,0,0,0.0025,0.0053,0.0186,0.0195,0.0112,0.0213,0.0228,0.0252,0.0337,0.0349,0.0299,0.03,0.0417,0.0429,0.044,0.0497,0.0481,0.0487,0.049,0.0664,0.0665,0.0667,0,0,0,0,0,0,0.0021,0.0036,0.018,0.0126,0.0147,0.0217,0.0244,0.0255,0.0284,0.0352,0.0364,0.0314,0.0417,0.0432,0.0495,0.0502,0.0489,0.0495,0.0662,0.0664,0.0666,0.0622,0,0,0,0,0,0,0.0015,0.0034,0.0045,0.0125,0.0149,0.0232,0.0245,0.0259,0.0296,0.0298,0.037,0.038,0.0417,0.0486,0.0501,0.051,0.0499,0.0661,0.0663,0.0666,0.0622,0.0622,0.0622,0,0,0,0,0,0.0008,0.0026,0.0045,0.0061,0.0162,0.0232,0.0248,0.0293,0.0297,0.0314,0.0364,0.0378,0.0511,0.0492,0.0509,0.052,0.066,0.0663,0.0665,0.0622,0.0622,0.0622,0,0,0,0,0,0,-0.0042,0.0035,0.0057,0.0098,0.0157,0.0239,0.0259,0.0292,0.0348,0.0346,0.0402,0.0417,0.047,0.0511,0.0488,0.0581,0.0585,0.0592,0.0546,0.0547,0.0547,0.0543,0.0504,0,0,0,0,0,-0.0048,-0.0017,0.0061,0.0094,0.0117,0.0187,0.022,0.0255,0.0315,0.0338,0.0388,0.0445,0.05,0.0532,0.0585,0.0645,0.0667,0.0663,0.0663,0.0663,0.0673,0.0733,0.0738,0.0676,0.0676,0.0676,0,0,-0.0058,-0.0011,0.0007,0.0085,0.0129,0.0167,0.0204,0.0252,0.0286,0.0343,0.0396,0.0445,0.0515,0.0574,0.0602,0.0607,0.0683,0.0666,0.0665,0.0676,0.0736,0.0742,0.0747,0.0678,0.0678,0.0677,0,0,-0.0071,-0.0024,-0.0009,0.0037,0.0103,0.0152,0.0161,0.0242,0.0276,0.034,0.0385,0.0448,0.0528,0.0588,0.0626,0.0667,0.0678,0.0672,0.0678,0.0735,0.074,0.0745,0.0734,0.0739,0.0678,0.0678,0.0678,0,-0.0093,-0.0058,0.0006,0.0031,0.0061,0.0137,0.0156,0.0215,0.0307,0.0343,0.0345,0.0488,0.0539,0.063,0.064,0.0666,0.0675,0.0664,0.0733,0.0739,0.0744,0.0733,0.0738,0.0676,0.0676,0.0676,0.0677,0,-0.0094,-0.0068,-0.0057,-0.0003,0.0044,0.0073,0.0156,0.0207,0.0251,0.0312,0.0401,0.0486,0.057,0.0596,0.063,0.0705,0.0685,0.0716,0.0723,0.0747,0.0733,0.074,0.0674,0.0674,0.0675,0.0675,0,0,-0.0157,-0.0078,-0.0079,-0.0066,0.0023,0.0057,0.0124,0.0206,0.0245,0.0338,0.0391,0.0508,0.0555,0.0604,0.0663,0.0723,0.0753,0.0732,0.0736,0.0704,0.0825,0.0803,0.0808,0.0791,0.0793,0.0795,0.078,0,-0.019,-0.0178,-0.011,-0.0088,-0.008,0.0021,0.0076,0.0166,0.0242,0.0314,0.0429,0.0493,0.0559,0.0586,0.0666,0.0728,0.0777,0.0751,0.0823,0.0824,0.079,0.0819,0.0839,0.0829,0.0786,0.0788,0.0788,0,-0.0228,-0.0215,-0.0215,-0.0145,-0.013,-0.0097,-0.0003,0.0062,0.0199,0.0257,0.0369,0.0447,0.0558,0.0598,0.074,0.0714,0.0771,0.0821,0.0822,0.083,0.0817,0.0811,0.0843,0.0991,0.0799,0.0798,0.0797,0,-0.0337,-0.0288,-0.0299,-0.0277,-0.0183,-0.0156,-0.0099,0.0031,0.0079,0.0212,0.0235,0.0406,0.0439,0.0581,0.0686,0.0712,0.0808,0.0856,0.0892,0.0887,0.0937,0.0934,0.1115,0.0964,0.0964,0.0964,0.0964,0,-0.0408,-0.0412,-0.0359,-0.0365,-0.0366,-0.0259,-0.0226,-0.0136,-0.0024,0.0012,0.0181,0.0216,0.0436,0.0521,0.0655,0.0769,0.0784,0.0896,0.0902,0.0916,0.0912,0.1069,0.111,0.0964,0.0964,0.0964,0.0964,0,-0.0517,-0.048,-0.0494,-0.0437,-0.0422,-0.0427,-0.0335,-0.0298,-0.0192,-0.0149,-0.0123,0.0046,0.0161,0.0355,0.0542,0.0681,0.0889,0.0856,0.0819,0.0823,0.1031,0.1065,0.1188,0.1258,0.0919,0.0919,0.0919,0,-0.0561,-0.059,-0.0584,-0.0601,-0.058,-0.0561,-0.0535,-0.0407,-0.0369,-0.0264,-0.0264,-0.0148,-0.0046,0.0209,0.047,0.0698,0.0834,0.0852,0.0946,0.1052,0.1096,0.1115,0.1167,0.0967,0.0967,0.0967,0.0968,0,-0.0657,-0.0669,-0.0686,-0.0729,-0.0733,-0.0719,-0.0681,-0.0681,-0.0543,-0.0484,-0.0419,-0.0336,-0.0109,0.0179,0.0469,0.0624,0.0946,0.0861,0.1018,0.1192,0.118,0.1244,0.0911,0.0969,0.0969,0.0968,0.0968,0.0968,-0.0729,-0.0779,-0.0809,-0.0838,-0.0853,-0.0856,-0.0848,-0.0778,-0.0715,-0.0523,-0.0494,-0.0195,0.0035,0.0463,0.06,0.0963,0.094,0.1138,0.1173,0.1185,0.1268,0.0897,0.094,0.0939,0.0939,0.0939,0.0939,0,-0.0798,-0.0842,-0.0894,-0.0926,-0.0952,-0.0926,-0.0912,-0.0854,-0.0773,-0.0435,-0.0264,0.0231,0.0491,0.0781,0.1139,0.1315,0.1366,0.1407,0.1489,0.1534,0.1264,0.1288,0.1352,0.1352,0.1352,0.1352,0.1352,0.1351,-0.0833,-0.0901,-0.0921,-0.0982,-0.1005,-0.1014,-0.1006,-0.0888,-0.0633,-0.0069,0.0454,0.0801,0.106,0.1329,0.1627,0.1659,0.1823,0.1757,0.1849,0.172,0.17,0.1681,0.1721,0.1875,0.1876,0.2138,0.2141,0.2143]}],[{"header":{"parameterUnit":"m.s-1","parameterCategory":2,"la1":30.2991,"la2":30.254,"lo1":-89.0895,"lo2":-89.0444,"dy":0.0017,"dx":0.0017,"nx":28,"ny":28,"refTime":"2025-06-01T03:00:00:Z","depth":"2","parameterNumber":2,"parameterNumberName":"U-component_of_CURRENTS"},"data":[0,0,0,0,0,0,0,0,0,0,0,0,0,0,0,0,0,0,0,0,0,0,0,0,0,0,0,0,0,0,0,0,0,0,0,0,0,0,0,0,0,0,0,0,0,0,0,0,0,0,0,0,0,0,0,0,0,0,-0.2223,-0.2223,0,-0.2124,-0.2122,-0.2121,-0.2121,-0.2123,-0.2125,-0.2127,-0.1999,-0.1993,-0.1988,0,0,0,0,0,0,0,0,0,0,0,0,0,-0.2387,-0.2383,-0.2223,-0.2223,-0.2223,-0.2125,-0.2122,-0.212,-0.212,-0.2123,-0.2126,-0.2128,-0.2,-0.1994,-0.1987,0,0,0,0,0,0,0,0,0,0,0,0,0,-0.2295,-0.2382,-0.2223,-0.2219,-0.2218,-0.2125,-0.2122,-0.2119,-0.212,-0.2123,-0.2127,-0.213,-0.2003,-0.1994,-0.1986,-0.1868,0,0,-0.1961,-0.1958,0,0,0,0,0,0,0,0,-0.23,-0.2287,-0.222,-0.2219,-0.2218,-0.2147,-0.2133,-0.2038,-0.2119,-0.2146,-0.2127,-0.2131,-0.205,-0.2038,-0.1998,-0.1862,-0.1857,-0.196,-0.1955,-0.1952,-0.1949,0,0,0,0,0,0,0,-0.2306,-0.2292,-0.2174,-0.2219,-0.2218,-0.2214,-0.2203,-0.2114,-0.2072,-0.2144,-0.2146,-0.2151,-0.2048,-0.2005,-0.1995,-0.1855,-0.1961,-0.1953,-0.1948,-0.1945,-0.1802,-0.1803,0,0,0,0,0,0,-0.2336,-0.2297,-0.2177,-0.2172,-0.228,-0.2209,-0.2197,-0.2158,-0.2074,-0.2067,-0.2148,-0.2151,-0.2018,-0.2004,-0.199,-0.1961,-0.1952,-0.1944,-0.1939,-0.1801,-0.1802,-0.1804,0,0,0,0,0,0,-0.2339,-0.2324,-0.2181,-0.2244,-0.2227,-0.2204,-0.216,-0.2155,-0.2148,-0.2079,-0.207,-0.2153,-0.202,-0.2002,-0.1949,-0.1952,-0.194,-0.1933,-0.18,-0.1801,-0.1803,-0.1829,0,0,0,0,0,0,-0.2343,-0.2324,-0.2307,-0.2244,-0.2225,-0.214,-0.2157,-0.2151,-0.2148,-0.2152,-0.2078,-0.2068,-0.2021,-0.1962,-0.1941,-0.1941,-0.1926,-0.1798,-0.18,-0.1802,-0.1826,-0.1831,-0.1835,0,0,0,0,0,-0.2348,-0.2322,-0.2305,-0.2292,-0.2199,-0.214,-0.2128,-0.2118,-0.2146,-0.2126,-0.21,-0.2072,-0.1963,-0.1954,-0.1929,-0.1928,-0.1797,-0.18,-0.1802,-0.1824,-0.183,-0.1835,0,0,0,0,0,0,-0.2364,-0.2318,-0.2299,-0.2252,-0.2206,-0.2145,-0.215,-0.2129,-0.2086,-0.2123,-0.2051,-0.2036,-0.1971,-0.1962,-0.1954,-0.1903,-0.1888,-0.1886,-0.1914,-0.1918,-0.1922,-0.197,-0.192,0,0,0,0,0,-0.2361,-0.234,-0.228,-0.2241,-0.2239,-0.2194,-0.2176,-0.2169,-0.2129,-0.2117,-0.2071,-0.2037,-0.1952,-0.1952,-0.1868,-0.1841,-0.1878,-0.1841,-0.1845,-0.1848,-0.1877,-0.1894,-0.1903,-0.1812,-0.1812,-0.1812,0,0,-0.236,-0.2331,-0.2318,-0.2247,-0.2229,-0.2196,-0.219,-0.2188,-0.2164,-0.2106,-0.2082,-0.201,-0.1934,-0.1885,-0.1867,-0.1895,-0.1909,-0.1852,-0.1855,-0.1882,-0.1898,-0.1907,-0.1914,-0.1814,-0.1814,-0.1813,0,0,-0.2356,-0.2326,-0.2317,-0.2285,-0.227,-0.2233,-0.224,-0.2201,-0.22,-0.2159,-0.2096,-0.2046,-0.197,-0.1904,-0.1861,-0.1847,-0.1886,-0.185,-0.1952,-0.1968,-0.1975,-0.1982,-0.2107,-0.2124,-0.1906,-0.1907,-0.1907,0,-0.2371,-0.2316,-0.2302,-0.2284,-0.2269,-0.2255,-0.2234,-0.2209,-0.2156,-0.2162,-0.2181,-0.2057,-0.1972,-0.1892,-0.1899,-0.1849,-0.1926,-0.1926,-0.1973,-0.198,-0.1987,-0.2112,-0.2131,-0.1908,-0.1908,-0.1908,-0.1908,0,-0.2343,-0.2313,-0.2318,-0.2281,-0.2254,-0.2246,-0.2219,-0.2216,-0.2235,-0.2218,-0.2181,-0.2088,-0.2037,-0.1997,-0.1941,-0.1938,-0.2001,-0.1928,-0.1957,-0.1997,-0.2128,-0.2148,-0.191,-0.191,-0.1909,-0.1909,0,0,-0.2334,-0.2309,-0.2306,-0.2285,-0.2263,-0.2227,-0.2231,-0.2205,-0.2233,-0.2223,-0.2253,-0.2112,-0.2122,-0.2076,-0.2003,-0.2042,-0.2136,-0.205,-0.205,-0.2175,-0.2294,-0.2089,-0.2091,-0.209,-0.2092,-0.2094,-0.2391,0,-0.2318,-0.2298,-0.2274,-0.2228,-0.2217,-0.221,-0.2205,-0.2199,-0.2227,-0.226,-0.2235,-0.2203,-0.2136,-0.2128,-0.2149,-0.2099,-0.2181,-0.207,-0.2238,-0.2246,-0.2053,-0.2101,-0.1813,-0.2029,-0.241,-0.2414,-0.2416,0,-0.228,-0.2272,-0.2264,-0.222,-0.2219,-0.2202,-0.2218,-0.2197,-0.2255,-0.2294,-0.2324,-0.2314,-0.2322,-0.227,-0.2326,-0.228,-0.2311,-0.2317,-0.2326,-0.2134,-0.207,-0.2037,-0.205,-0.2448,-0.2446,-0.2443,-0.2441,0,-0.2254,-0.2235,-0.2236,-0.2223,-0.2201,-0.2215,-0.2197,-0.2242,-0.2229,-0.2328,-0.2367,-0.2414,-0.2432,-0.2473,-0.2498,-0.2433,-0.2628,-0.2511,-0.2387,-0.238,-0.2163,-0.2127,-0.2589,-0.2588,-0.2588,-0.2587,-0.2586,0,-0.2211,-0.2201,-0.2249,-0.2217,-0.2249,-0.2229,-0.2233,-0.2265,-0.2295,-0.227,-0.2377,-0.2366,-0.2484,-0.2588,-0.2606,-0.2589,-0.2717,-0.2431,-0.2417,-0.2168,-0.2131,-0.2489,-0.2473,-0.2598,-0.2595,-0.2593,-0.2591,0,-0.2194,-0.2212,-0.2214,-0.2225,-0.223,-0.2268,-0.221,-0.2192,-0.2259,-0.2244,-0.227,-0.2384,-0.2452,-0.2615,-0.2724,-0.2678,-0.2705,-0.2681,-0.2442,-0.2384,-0.2444,-0.2427,-0.2539,-0.2534,-0.253,-0.2526,-0.2523,0,-0.2171,-0.2186,-0.2224,-0.2228,-0.2245,-0.2251,-0.2217,-0.2206,-0.2146,-0.2174,-0.2146,-0.2278,-0.2231,-0.2418,-0.242,-0.2507,-0.2629,-0.2318,-0.2028,-0.2451,-0.2429,-0.2419,-0.2408,-0.1838,-0.183,-0.1823,-0.1817,0,-0.2125,-0.2188,-0.2161,-0.2187,-0.2179,-0.2127,-0.206,-0.2022,-0.1967,-0.1987,-0.192,-0.1897,-0.1958,-0.1859,-0.2033,-0.2017,-0.2261,-0.216,-0.2707,-0.1821,-0.179,-0.1767,-0.1781,-0.1755,-0.1761,-0.1766,-0.1769,-0.1771,-0.2078,-0.2079,-0.204,-0.207,-0.2064,-0.1973,-0.1867,-0.1802,-0.1721,-0.1664,-0.1671,-0.1589,-0.1548,-0.1534,-0.154,-0.162,-0.1721,-0.1671,-0.1694,-0.1725,-0.1515,-0.1467,-0.1346,-0.1349,-0.1353,-0.1355,-0.1358,0,-0.1933,-0.1902,-0.1888,-0.1833,-0.1758,-0.1821,-0.1699,-0.1556,-0.146,-0.1465,-0.1389,-0.1141,-0.1041,-0.109,-0.1019,-0.1002,-0.1029,-0.1013,-0.1024,-0.1081,-0.1134,-0.0897,-0.0564,-0.0563,-0.0562,-0.0561,0,0,-0.1808,-0.1695,-0.1672,-0.1505,-0.1496,-0.1335,-0.1264,-0.1173,-0.1125,-0.104,-0.1005,-0.1018,-0.0968,-0.0766,-0.0705,-0.0628,-0.0876,-0.0601,-0.1214,-0.1279,-0.1331,-0.1462,-0.1152,0,0,0,0,0]},{"header":{"parameterUnit":"m.s-1","parameterCategory":2,"la1":30.2991,"la2":30.254,"lo1":-89.0895,"lo2":-89.0444,"dy":0.0017,"dx":0.0017,"nx":28,"ny":28,"refTime":"2025-06-01T03:00:00:Z","depth":"2","parameterNumber":3,"parameterNumberName":"V-component_of_CURRENTS"},"data":[0,0,0,0,0,0,0,0,0,0,0,0,0,0,0,0,0,0,0,0,0,0,0,0,0,0,0,0,0,0,0,0,0,0,0,0,0,0,0,0,0,0,0,0,0,0,0,0,0,0,0,0,0,0,0,0,0,0,-0.0294,-0.0293,0,-0.0166,-0.0165,-0.0163,-0.0112,-0.0112,-0.0112,-0.0113,0.002,0.0023,0.0027,0,0,0,0,0,0,0,0,0,0,0,0,0,-0.0396,-0.0395,-0.0294,-0.0293,-0.0291,-0.0166,-0.0164,-0.0163,-0.0112,-0.0112,-0.0112,-0.0113,0.0019,0.0023,0.0027,0,0,0,0,0,0,0,0,0,0,0,0,0,-0.0319,-0.0394,-0.0294,-0.025,-0.0245,-0.0167,-0.0164,-0.0162,-0.0112,-0.0112,-0.0113,-0.0113,0.0017,0.0023,0.0028,0.0071,0,0,0.0045,0.0048,0,0,0,0,0,0,0,0,-0.0323,-0.0315,-0.0258,-0.0253,-0.0247,-0.0155,-0.0151,-0.0084,-0.0112,-0.0163,-0.0113,-0.0113,-0.0037,-0.0027,-0.0003,0.0077,0.0083,0.0046,0.0049,0.0052,0.0053,0,0,0,0,0,0,0,-0.0329,-0.032,-0.0244,-0.0256,-0.0249,-0.0202,-0.0193,-0.0138,-0.01,-0.0158,-0.0154,-0.0139,-0.0035,-0.0009,0.0,0.0085,0.0046,0.0051,0.0054,0.0056,0.0238,0.024,0,0,0,0,0,0,-0.0348,-0.0325,-0.0248,-0.024,-0.0286,-0.0201,-0.019,-0.0184,-0.01,-0.0088,-0.0139,-0.0137,-0.0018,-0.0007,0.0005,0.0086,0.0052,0.0057,0.006,0.0237,0.0239,0.024,0,0,0,0,0,0,-0.0351,-0.0343,-0.0253,-0.0279,-0.0264,-0.0199,-0.0193,-0.0182,-0.0148,-0.0085,-0.0073,-0.0116,-0.0018,-0.0003,0.0056,0.009,0.006,0.0065,0.0235,0.0238,0.024,0.0231,0,0,0,0,0,0,-0.0355,-0.0345,-0.0344,-0.0281,-0.0263,-0.0223,-0.0192,-0.0179,-0.0138,-0.0135,-0.0062,-0.005,-0.0017,0.0047,0.0061,0.0097,0.0069,0.0234,0.0236,0.0239,0.0229,0.0232,0.0235,0,0,0,0,0,-0.0359,-0.0354,-0.0345,-0.0335,-0.0266,-0.0224,-0.0211,-0.0165,-0.0137,-0.0134,-0.0074,-0.0052,0.0075,0.0052,0.0069,0.0107,0.0232,0.0236,0.0239,0.0228,0.0232,0.0235,0,0,0,0,0,0,-0.0393,-0.0346,-0.0335,-0.0316,-0.0283,-0.0215,-0.0189,-0.016,-0.0107,-0.0087,-0.0036,-0.0021,0.0034,0.0077,0.0051,0.0168,0.0159,0.0166,0.0145,0.0149,0.0152,0.0157,0.0074,0,0,0,0,0,-0.0403,-0.0392,-0.0343,-0.0331,-0.0306,-0.0246,-0.0218,-0.0186,-0.0131,-0.0107,-0.0056,0.001,0.0062,0.0108,0.0147,0.0224,0.0263,0.0261,0.0264,0.0266,0.0283,0.0388,0.0401,0.0251,0.0251,0.0251,0,0,-0.0407,-0.0385,-0.0374,-0.0338,-0.0294,-0.0265,-0.023,-0.018,-0.0145,-0.0098,-0.0029,0.0009,0.0077,0.0145,0.0178,0.019,0.032,0.027,0.0272,0.0287,0.0393,0.0407,0.042,0.0253,0.0253,0.0253,0,0,-0.042,-0.0391,-0.0387,-0.0357,-0.0303,-0.0266,-0.0255,-0.0183,-0.0138,-0.0078,-0.0033,0.004,0.0112,0.0186,0.0229,0.0284,0.0312,0.0284,0.0333,0.0434,0.0447,0.046,0.0483,0.0498,0.0312,0.0312,0.0312,0,-0.0429,-0.0424,-0.038,-0.0364,-0.0335,-0.027,-0.0251,-0.019,-0.0113,-0.0048,-0.0062,0.0101,0.0144,0.0273,0.0275,0.0295,0.0319,0.0309,0.0438,0.0451,0.0464,0.0486,0.0502,0.0312,0.0312,0.0312,0.0312,0,-0.0441,-0.0429,-0.0414,-0.0382,-0.0346,-0.0314,-0.0234,-0.0172,-0.0113,-0.0043,0.008,0.015,0.0254,0.0277,0.0287,0.0412,0.0383,0.0405,0.0425,0.0479,0.0497,0.0514,0.0312,0.0312,0.0312,0.0312,0,0,-0.0486,-0.0436,-0.0433,-0.0422,-0.0349,-0.0323,-0.0232,-0.0131,-0.0043,0.0045,0.0158,0.0259,0.0314,0.0366,0.0411,0.0504,0.0585,0.0484,0.0489,0.0499,0.0747,0.0648,0.0656,0.0623,0.0627,0.063,0.0705,0,-0.0514,-0.0508,-0.0464,-0.0442,-0.0426,-0.0325,-0.0248,-0.0134,-0.0027,0.0098,0.024,0.0334,0.0347,0.0387,0.0491,0.0547,0.0637,0.0559,0.0702,0.0705,0.0606,0.0677,0.0636,0.0694,0.0722,0.0725,0.0727,0,-0.0546,-0.0543,-0.0536,-0.0464,-0.044,-0.0411,-0.026,-0.0186,0.0029,0.0124,0.0283,0.0372,0.0517,0.051,0.0693,0.0631,0.069,0.0744,0.0749,0.0681,0.0641,0.0657,0.0724,0.0756,0.0754,0.0752,0.075,0,-0.063,-0.0586,-0.059,-0.057,-0.0479,-0.0431,-0.0369,-0.0176,-0.0088,0.0131,0.0199,0.0421,0.0481,0.0632,0.0706,0.0709,0.0875,0.0908,0.0891,0.0882,0.089,0.0874,0.1071,0.1071,0.1071,0.1071,0.1071,0,-0.0684,-0.0681,-0.0631,-0.0643,-0.0605,-0.0509,-0.042,-0.0299,-0.0121,-0.0035,0.0176,0.0256,0.051,0.0624,0.0727,0.0824,0.09,0.0911,0.0919,0.0876,0.0859,0.0957,0.0943,0.1074,0.1073,0.1073,0.1072,0,-0.076,-0.0733,-0.0742,-0.068,-0.0657,-0.0633,-0.051,-0.0424,-0.027,-0.0163,-0.0114,0.0135,0.0269,0.0481,0.0704,0.0804,0.0938,0.0956,0.0838,0.0831,0.0876,0.0861,0.0995,0.0992,0.099,0.0989,0.0987,0,-0.0793,-0.0813,-0.0805,-0.0811,-0.0789,-0.0734,-0.0677,-0.0514,-0.0447,-0.0273,-0.0248,-0.0066,0.0075,0.0358,0.0571,0.0781,0.0833,0.0859,0.0894,0.0886,0.0881,0.0868,0.0856,0.0889,0.0887,0.0885,0.0884,0,-0.0859,-0.0865,-0.0879,-0.0904,-0.0885,-0.084,-0.0782,-0.0755,-0.0591,-0.0493,-0.0379,-0.0248,0.0005,0.025,0.0503,0.0628,0.0832,0.0826,0.0914,0.0885,0.0786,0.0779,0.0772,0.0869,0.087,0.0871,0.0872,0.0873,-0.0902,-0.093,-0.0961,-0.0966,-0.0958,-0.0944,-0.0922,-0.0858,-0.0768,-0.0634,-0.05,-0.0298,-0.0044,0.0309,0.0478,0.0648,0.0691,0.0794,0.0802,0.081,0.0756,0.0656,0.07,0.0701,0.0701,0.0702,0.0702,0,-0.0934,-0.0963,-0.1003,-0.102,-0.103,-0.0998,-0.0971,-0.0936,-0.087,-0.073,-0.0558,-0.0262,0.0007,0.0221,0.0459,0.0637,0.0687,0.0672,0.072,0.0733,0.0745,0.069,0.0616,0.0616,0.0616,0.0616,0,0,-0.0951,-0.0997,-0.1016,-0.1056,-0.1074,-0.1069,-0.1059,-0.1003,-0.0912,-0.0756,-0.059,-0.0303,-0.0028,0.0143,0.0361,0.0468,0.0557,0.0485,0.0537,0.0578,0.0588,0.0798,0.0723,0,0,0,0,0]}],[{"header":{"parameterUnit":"m.s-1","parameterCategory":2,"la1":30.2991,"la2":30.254,"lo1":-89.0895,"lo2":-89.0444,"dy":0.0017,"dx":0.0017,"nx":28,"ny":28,"refTime":"2025-06-01T03:00:00:Z","depth":"4","parameterNumber":2,"parameterNumberName":"U-component_of_CURRENTS"},"data":[0,0,0,0,0,0,0,0,0,0,0,0,0,0,0,0,0,0,0,0,0,0,0,0,0,0,0,0,0,0,0,0,0,0,0,0,0,0,0,0,0,0,0,0,0,0,0,0,0,0,0,0,0,0,0,0,0,0,-0.056,-0.056,0,-0.0629,-0.063,-0.0631,-0.0675,-0.0675,-0.0675,-0.0675,-0.0746,-0.0748,-0.0749,0,0,0,0,0,0,0,0,0,0,0,0,0,-0.0506,-0.0507,-0.056,-0.056,-0.0561,-0.0628,-0.063,-0.0631,-0.0675,-0.0675,-0.0675,-0.0675,-0.0745,-0.0747,-0.075,0,0,0,0,0,0,0,0,0,0,0,0,0,-0.055,-0.0507,-0.056,-0.0589,-0.0592,-0.0628,-0.063,-0.0631,-0.0675,-0.0675,-0.0675,-0.0675,-0.0744,-0.0747,-0.075,-0.0767,0,0,-0.0759,-0.076,0,0,0,0,0,0,0,0,-0.0548,-0.0553,-0.0584,-0.0587,-0.059,-0.0641,-0.0637,-0.0676,-0.0675,-0.0647,-0.0675,-0.0675,-0.0709,-0.0715,-0.0732,-0.0771,-0.0774,-0.0759,-0.0761,-0.0762,-0.0763,0,0,0,0,0,0,0,-0.0545,-0.055,-0.059,-0.0585,-0.0588,-0.0612,-0.0618,-0.0645,-0.0679,-0.0649,-0.0652,-0.0655,-0.0711,-0.0729,-0.0734,-0.0775,-0.0759,-0.0761,-0.0763,-0.0764,-0.086,-0.0861,0,0,0,0,0,0,-0.0528,-0.0547,-0.0588,-0.0592,-0.0565,-0.0612,-0.062,-0.0627,-0.0679,-0.0686,-0.0655,-0.0656,-0.0724,-0.073,-0.0736,-0.0813,-0.0762,-0.0764,-0.0766,-0.0859,-0.086,-0.0861,0,0,0,0,0,0,-0.0527,-0.0531,-0.0585,-0.0568,-0.0576,-0.0613,-0.0621,-0.0628,-0.0662,-0.0683,-0.069,-0.0682,-0.0724,-0.0732,-0.0772,-0.0814,-0.0766,-0.0768,-0.0858,-0.086,-0.0861,-0.0933,0,0,0,0,0,0,-0.0525,-0.0531,-0.0539,-0.0567,-0.0577,-0.0616,-0.0621,-0.0629,-0.0661,-0.0665,-0.0708,-0.0714,-0.0725,-0.0768,-0.0775,-0.0817,-0.077,-0.0857,-0.0859,-0.086,-0.093,-0.0937,-0.0943,0,0,0,0,0,-0.0523,-0.0536,-0.0539,-0.0544,-0.0584,-0.0617,-0.0625,-0.0652,-0.0662,-0.0682,-0.0709,-0.0713,-0.0783,-0.0771,-0.0779,-0.0823,-0.0856,-0.0858,-0.086,-0.0927,-0.0935,-0.0943,0,0,0,0,0,0,-0.0526,-0.0542,-0.0546,-0.0566,-0.059,-0.0623,-0.0646,-0.0662,-0.07,-0.0707,-0.0728,-0.0736,-0.0777,-0.0787,-0.0773,-0.0852,-0.0819,-0.0823,-0.0867,-0.0875,-0.0882,-0.0857,-0.0773,0,0,0,0,0,-0.0526,-0.0541,-0.0558,-0.058,-0.0589,-0.062,-0.0639,-0.0657,-0.0688,-0.0706,-0.0737,-0.0766,-0.079,-0.0822,-0.0833,-0.0891,-0.0873,-0.0921,-0.0928,-0.0933,-0.0917,-0.0929,-0.0936,-0.0868,-0.0868,-0.0868,0,0,-0.0529,-0.0546,-0.0552,-0.0582,-0.0605,-0.0625,-0.0634,-0.0668,-0.0695,-0.0707,-0.0764,-0.0781,-0.0801,-0.0854,-0.0876,-0.0876,-0.0945,-0.0936,-0.0941,-0.0921,-0.0932,-0.0939,-0.0945,-0.0869,-0.0869,-0.0869,0,0,-0.0543,-0.0562,-0.0572,-0.0597,-0.0628,-0.0645,-0.0656,-0.0695,-0.0723,-0.0773,-0.0781,-0.0814,-0.0877,-0.0894,-0.0911,-0.0959,-0.0962,-0.0984,-0.1027,-0.1042,-0.1047,-0.1052,-0.1047,-0.1051,-0.1011,-0.1012,-0.1012,0,-0.0545,-0.0564,-0.0584,-0.0606,-0.0627,-0.0654,-0.0672,-0.0707,-0.0758,-0.0782,-0.0796,-0.0871,-0.0886,-0.0941,-0.0964,-0.0974,-0.0983,-0.1003,-0.1051,-0.1055,-0.1058,-0.1052,-0.1055,-0.1015,-0.1015,-0.1015,-0.1014,0,-0.056,-0.0583,-0.0599,-0.063,-0.0656,-0.0683,-0.0717,-0.0753,-0.0791,-0.0825,-0.0886,-0.0917,-0.0961,-0.0987,-0.0998,-0.1047,-0.1045,-0.1041,-0.1032,-0.107,-0.1061,-0.1062,-0.1021,-0.1019,-0.1018,-0.1017,0,0,-0.0544,-0.0592,-0.0601,-0.0618,-0.067,-0.0692,-0.0739,-0.0782,-0.0823,-0.0881,-0.0939,-0.0987,-0.1012,-0.1029,-0.1059,-0.1088,-0.1125,-0.1096,-0.1095,-0.1093,-0.1161,-0.1092,-0.1087,-0.1155,-0.1155,-0.1156,-0.1149,0,-0.0548,-0.0582,-0.0611,-0.0653,-0.0669,-0.0712,-0.0753,-0.0802,-0.0864,-0.093,-0.0971,-0.1032,-0.1032,-0.1078,-0.1102,-0.1113,-0.1133,-0.1126,-0.1122,-0.112,-0.1056,-0.1087,-0.1157,-0.115,-0.115,-0.1151,-0.1151,0,-0.0549,-0.0574,-0.0603,-0.0658,-0.0669,-0.07,-0.0773,-0.0817,-0.0904,-0.0958,-0.1028,-0.1073,-0.1122,-0.1121,-0.1147,-0.1156,-0.1157,-0.1161,-0.1162,-0.1065,-0.1054,-0.1101,-0.1154,-0.1153,-0.1153,-0.1153,-0.1153,0,-0.0521,-0.0572,-0.0593,-0.0615,-0.0676,-0.0702,-0.0739,-0.0823,-0.0877,-0.0986,-0.1048,-0.1107,-0.1148,-0.1161,-0.1167,-0.1176,-0.1187,-0.1191,-0.112,-0.1115,-0.1147,-0.1142,-0.1194,-0.1194,-0.1194,-0.1194,-0.1194,0,-0.0513,-0.0535,-0.0583,-0.06,-0.0626,-0.0686,-0.0742,-0.0796,-0.0902,-0.0974,-0.1061,-0.1124,-0.1166,-0.1188,-0.1182,-0.1146,-0.119,-0.1113,-0.1108,-0.1179,-0.1177,-0.1149,-0.1144,-0.1194,-0.1194,-0.1194,-0.1194,0,-0.048,-0.0514,-0.0537,-0.0595,-0.0612,-0.0633,-0.0723,-0.0783,-0.0883,-0.0987,-0.1028,-0.1135,-0.1158,-0.1176,-0.1189,-0.115,-0.1132,-0.1107,-0.1171,-0.117,-0.1048,-0.1047,-0.1027,-0.1025,-0.1023,-0.1021,-0.1019,0,-0.0466,-0.0475,-0.0516,-0.0524,-0.055,-0.0597,-0.064,-0.0753,-0.0834,-0.0986,-0.1037,-0.1105,-0.1159,-0.111,-0.1125,-0.1091,-0.1079,-0.106,-0.1058,-0.1034,-0.1031,-0.1034,-0.1035,-0.1016,-0.1015,-0.1015,-0.1014,0,-0.0435,-0.0448,-0.046,-0.0475,-0.0513,-0.0569,-0.065,-0.0701,-0.0852,-0.0937,-0.1031,-0.1061,-0.1078,-0.107,-0.1043,-0.1023,-0.107,-0.1038,-0.1042,-0.104,-0.102,-0.102,-0.1024,-0.1007,-0.1008,-0.1009,-0.1009,0,-0.0404,-0.0395,-0.0413,-0.0425,-0.0474,-0.0554,-0.0593,-0.0695,-0.078,-0.0954,-0.0966,-0.1033,-0.1079,-0.1034,-0.1015,-0.0982,-0.0969,-0.0943,-0.0953,-0.0961,-0.0939,-0.0905,-0.0845,0,0,0,0,0,-0.0377,-0.0369,-0.0369,-0.0406,-0.0464,-0.051,-0.0617,-0.0677,-0.0808,-0.0856,-0.092,-0.094,-0.094,-0.0958,-0.0906,-0.0964,-0.0958,-0.0899,-0.0931,-0.0966,-0.0974,-0.0953,0,0,0,0,0,0,-0.0356,-0.0353,-0.0354,-0.0408,-0.0437,-0.0531,-0.0604,-0.0689,-0.0723,-0.0827,-0.0819,-0.0883,-0.0873,-0.0951,-0.0887,-0.0888,-0.089,-0.0922,-0.092,-0.0961,-0.0969,-0.0976,-0.0957,0,0,0,0,0]},{"header":{"parameterUnit":"m.s-1","parameterCategory":2,"la1":30.2991,"la2":30.254,"lo1":-89.0895,"lo2":-89.0444,"dy":0.0017,"dx":0.0017,"nx":28,"ny":28,"refTime":"2025-06-01T03:00:00:Z","depth":"4","parameterNumber":3,"parameterNumberName":"V-component_of_CURRENTS"},"data":[0,0,0,0,0,0,0,0,0,0,0,0,0,0,0,0,0,0,0,0,0,0,0,0,0,0,0,0,0,0,0,0,0,0,0,0,0,0,0,0,0,0,0,0,0,0,0,0,0,0,0,0,0,0,0,0,0,0,-0.0507,-0.0506,0,-0.0469,-0.0468,-0.0468,-0.0446,-0.0446,-0.0446,-0.0446,-0.0405,-0.0404,-0.0403,0,0,0,0,0,0,0,0,0,0,0,0,0,-0.0528,-0.0528,-0.0507,-0.0506,-0.0506,-0.0469,-0.0468,-0.0468,-0.0446,-0.0446,-0.0446,-0.0446,-0.0405,-0.0404,-0.0403,0,0,0,0,0,0,0,0,0,0,0,0,0,-0.0508,-0.0528,-0.0507,-0.049,-0.0488,-0.0469,-0.0468,-0.0468,-0.0446,-0.0446,-0.0446,-0.0446,-0.0406,-0.0404,-0.0403,-0.0398,0,0,-0.0399,-0.0398,0,0,0,0,0,0,0,0,-0.0509,-0.0508,-0.0493,-0.0491,-0.0489,-0.0461,-0.0461,-0.0444,-0.0446,-0.0463,-0.0446,-0.0446,-0.0423,-0.0421,-0.0415,-0.0396,-0.0395,-0.0398,-0.0398,-0.0397,-0.0397,0,0,0,0,0,0,0,-0.0511,-0.0509,-0.0492,-0.0493,-0.049,-0.0473,-0.047,-0.0457,-0.0445,-0.0462,-0.046,-0.0454,-0.0422,-0.0416,-0.0414,-0.0394,-0.0399,-0.0397,-0.0396,-0.0396,-0.0399,-0.04,0,0,0,0,0,0,-0.0516,-0.051,-0.0494,-0.0491,-0.0498,-0.0473,-0.047,-0.0471,-0.0445,-0.0441,-0.0455,-0.0454,-0.0419,-0.0415,-0.0412,-0.0428,-0.0397,-0.0396,-0.0395,-0.0398,-0.0399,-0.04,0,0,0,0,0,0,-0.0517,-0.0515,-0.0495,-0.0499,-0.0495,-0.0473,-0.0474,-0.047,-0.0469,-0.044,-0.0436,-0.0458,-0.0419,-0.0414,-0.0408,-0.0425,-0.0395,-0.0394,-0.0397,-0.0399,-0.04,-0.0444,0,0,0,0,0,0,-0.0518,-0.0516,-0.0524,-0.05,-0.0495,-0.0494,-0.0474,-0.047,-0.0466,-0.0464,-0.0442,-0.0437,-0.0418,-0.041,-0.0406,-0.0423,-0.0393,-0.0396,-0.0398,-0.0399,-0.0442,-0.0447,-0.0452,0,0,0,0,0,-0.0519,-0.0526,-0.0525,-0.0523,-0.0505,-0.0495,-0.0491,-0.0475,-0.0466,-0.0472,-0.0455,-0.0438,-0.0419,-0.0409,-0.0405,-0.0421,-0.0395,-0.0397,-0.0399,-0.044,-0.0446,-0.0452,0,0,0,0,0,0,-0.054,-0.0524,-0.0522,-0.0525,-0.0517,-0.0491,-0.0492,-0.0481,-0.0472,-0.0471,-0.0444,-0.0438,-0.0442,-0.0427,-0.0417,-0.0429,-0.0407,-0.0409,-0.044,-0.0445,-0.045,-0.0444,-0.0391,0,0,0,0,0,-0.0549,-0.0554,-0.0535,-0.0542,-0.0538,-0.0518,-0.0513,-0.0503,-0.0488,-0.0484,-0.0469,-0.0456,-0.0447,-0.0442,-0.0433,-0.0434,-0.0391,-0.0445,-0.045,-0.0454,-0.0448,-0.0388,-0.0387,-0.0407,-0.0407,-0.0407,0,0,-0.0559,-0.0553,-0.0555,-0.0548,-0.0539,-0.054,-0.0515,-0.0512,-0.0517,-0.0481,-0.0488,-0.0473,-0.0452,-0.0456,-0.0457,-0.0445,-0.0429,-0.0457,-0.0461,-0.0451,-0.039,-0.0388,-0.0386,-0.0409,-0.0409,-0.0408,0,0,-0.0578,-0.0577,-0.0585,-0.0582,-0.0574,-0.0561,-0.0564,-0.0547,-0.0544,-0.0546,-0.0524,-0.0517,-0.0507,-0.0493,-0.0484,-0.0512,-0.0459,-0.0517,-0.0533,-0.0477,-0.0474,-0.047,-0.042,-0.0412,-0.0518,-0.0518,-0.0518,0,-0.0593,-0.0601,-0.0586,-0.0594,-0.0598,-0.0574,-0.0587,-0.0578,-0.0565,-0.0564,-0.0557,-0.0533,-0.0524,-0.0513,-0.0527,-0.0523,-0.0477,-0.0511,-0.0481,-0.0477,-0.0472,-0.0422,-0.0412,-0.052,-0.052,-0.052,-0.0519,0,-0.061,-0.0625,-0.063,-0.0635,-0.0639,-0.0645,-0.0633,-0.0636,-0.063,-0.0617,-0.0611,-0.0586,-0.0568,-0.0573,-0.0558,-0.0534,-0.0507,-0.0493,-0.046,-0.0472,-0.0419,-0.0408,-0.0523,-0.0523,-0.0522,-0.0521,0,0,-0.0622,-0.064,-0.0644,-0.0662,-0.0663,-0.0667,-0.0679,-0.0677,-0.0677,-0.0664,-0.0651,-0.0646,-0.062,-0.0608,-0.0585,-0.0542,-0.0488,-0.0507,-0.0503,-0.0449,-0.0353,-0.0308,-0.0292,-0.0456,-0.0454,-0.0453,-0.033,0,-0.0643,-0.0672,-0.0676,-0.0711,-0.0724,-0.072,-0.0732,-0.073,-0.0717,-0.0697,-0.0662,-0.0641,-0.0636,-0.0617,-0.0577,-0.0505,-0.0459,-0.0522,-0.0357,-0.0352,-0.0302,-0.0278,-0.0448,-0.0321,-0.0319,-0.0317,-0.0316,0,-0.0656,-0.0677,-0.0716,-0.0751,-0.0756,-0.0776,-0.0788,-0.0794,-0.0761,-0.0747,-0.0712,-0.0665,-0.0611,-0.0594,-0.0473,-0.0507,-0.0437,-0.0379,-0.0372,-0.0303,-0.0286,-0.0305,-0.0295,-0.0297,-0.0298,-0.03,-0.0301,0,-0.0665,-0.0705,-0.0742,-0.0754,-0.0785,-0.0808,-0.0821,-0.0813,-0.0806,-0.0763,-0.0727,-0.0666,-0.0606,-0.0518,-0.0408,-0.0429,-0.0251,-0.0266,-0.0159,-0.0156,-0.0214,-0.0219,-0.0168,-0.0168,-0.0169,-0.0169,-0.0169,0,-0.0677,-0.071,-0.0753,-0.0773,-0.0815,-0.0833,-0.0857,-0.0857,-0.0829,-0.0795,-0.0746,-0.0674,-0.0576,-0.0462,-0.0385,-0.0227,-0.023,-0.0146,-0.0112,-0.0239,-0.0248,-0.0206,-0.0212,-0.0164,-0.0165,-0.0166,-0.0167,0,-0.0682,-0.0708,-0.0755,-0.0804,-0.0821,-0.0852,-0.0877,-0.0877,-0.0852,-0.0795,-0.0768,-0.0658,-0.0505,-0.0396,-0.0234,-0.018,-0.005,0.0005,-0.0128,-0.0107,-0.0004,-0.0014,0.0131,0.0134,0.0136,0.0138,0.014,0,-0.0686,-0.071,-0.0773,-0.08,-0.0829,-0.0871,-0.0886,-0.0889,-0.0871,-0.0768,-0.072,-0.0565,-0.0477,-0.0204,-0.012,0.0046,0.006,0.0114,0.0039,0.0014,0.0031,0.0017,0.0004,0.0144,0.0144,0.0145,0.0145,0,-0.0696,-0.0722,-0.0757,-0.0806,-0.0842,-0.087,-0.0886,-0.0868,-0.0835,-0.08,-0.0626,-0.0484,-0.0302,-0.0151,-0.0012,0.0094,0.0066,0.0138,0.0133,0.0063,0.0031,0.0043,0.0027,0.0154,0.0153,0.0152,0.0151,0,-0.0702,-0.0725,-0.0766,-0.0806,-0.0848,-0.0859,-0.087,-0.0814,-0.0784,-0.0664,-0.0599,-0.0414,-0.0313,-0.0121,0.0004,0.0119,0.0125,0.0129,0.0124,0.0116,0.0062,0.0014,0.0181,0,0,0,0,0,-0.0705,-0.0723,-0.0759,-0.0806,-0.0844,-0.0866,-0.086,-0.0857,-0.0809,-0.0671,-0.0631,-0.0451,-0.022,-0.0125,0.0004,0.0001,0.0105,0.015,0.0096,0.02,0.019,0.0132,0,0,0,0,0,0,-0.0707,-0.0742,-0.0752,-0.0792,-0.0824,-0.0859,-0.0856,-0.0825,-0.0739,-0.0665,-0.0532,-0.0439,-0.0221,-0.029,0.0001,0.0035,0.0014,0.026,0.0262,0.0205,0.0196,0.0189,0.0126,0,0,0,0,0]}]]